When you browse on this site, cookies collect data to enhance your experience and personalize the content and advertising you see.
Visit our Privacy Policy to learn more. By continuing to use the site, you agree to this use of cookies and data.
EN

Hourly Weather Barra

Today, 13 August, Thursday

Time Temperature Precipitation Wind Pressure Humidity
00:00 +18°C° 0 mm 0 mps 750 mmHg 94%
01:00 +17°C° 0 mm 0 mps 750 mmHg 94%
02:00 +18°C° 0 mm 0 mps 750 mmHg 94%
03:00 +20°C° 0 mm 1 mps 750 mmHg 94%
04:00 +20°C° 0 mm 1 mps 750 mmHg 93%
05:00 +20°C° 0 mm 1 mps 750 mmHg 92%
06:00 +21°C° 0 mm 1 mps 751 mmHg 91%
07:00 +21°C° 0 mm 1 mps 751 mmHg 90%
08:00 +23°C° 0 mm 1 mps 751 mmHg 82%
09:00 +24°C° 0 mm 1 mps 751 mmHg 74%
10:00 +26°C° 0 mm 1 mps 752 mmHg 68%
11:00 +26°C° 0 mm 1 mps 751 mmHg 66%
12:00 +27°C° 0 mm 2 mps 750 mmHg 63%
13:00 +28°C° 0 mm 2 mps 750 mmHg 60%
14:00 +27°C° 0 mm 2 mps 749 mmHg 62%
15:00 +27°C° 0 mm 2 mps 749 mmHg 64%
16:00 +26°C° 0 mm 2 mps 748 mmHg 66%
17:00 +24°C° 0 mm 2 mps 749 mmHg 74%
18:00 +21°C° 0 mm 2 mps 749 mmHg 83%
19:00 +20°C° 0 mm 2 mps 749 mmHg 91%
20:00 +20°C° 0 mm 1 mps 750 mmHg 92%
21:00 +20°C° 0 mm 1 mps 750 mmHg 92%
22:00 +20°C° 0 mm 1 mps 750 mmHg 93%
23:00 +20°C° 0 mm 1 mps 750 mmHg 94%

Tomorrow, 14 August, Friday

Time Temperature Precipitation Wind Pressure Humidity
00:00 +17°C° 0 mm 0 mps 750 mmHg 94%
01:00 +17°C° 0 mm 0 mps 750 mmHg 94%
02:00 +17°C° 0 mm 0 mps 750 mmHg 94%
03:00 +17°C° 0 mm 0 mps 750 mmHg 93%
04:00 +19°C° 0 mm 1 mps 750 mmHg 93%
05:00 +19°C° 0 mm 1 mps 750 mmHg 93%
06:00 +19°C° 0 mm 1 mps 750 mmHg 94%
07:00 +19°C° 0 mm 1 mps 750 mmHg 94%
08:00 +21°C° 0 mm 1 mps 751 mmHg 84%
09:00 +23°C° 0 mm 1 mps 751 mmHg 74%
10:00 +25°C° 0 mm 1 mps 751 mmHg 64%
11:00 +26°C° 0 mm 2 mps 750 mmHg 61%
12:00 +26°C° 0 mm 2 mps 750 mmHg 59%
13:00 +27°C° 0 mm 2 mps 749 mmHg 56%
14:00 +26°C° 0 mm 2 mps 749 mmHg 58%
15:00 +26°C° 0 mm 2 mps 749 mmHg 59%
16:00 +26°C° 0 mm 2 mps 748 mmHg 60%
17:00 +24°C° 0 mm 1 mps 749 mmHg 69%
18:00 +22°C° 0 mm 1 mps 749 mmHg 78%
19:00 +20°C° 0 mm 1 mps 750 mmHg 86%
20:00 +20°C° 0 mm 1 mps 750 mmHg 88%
21:00 +20°C° 0 mm 1 mps 750 mmHg 89%
22:00 +19°C° 0 mm 1 mps 750 mmHg 91%
23:00 +19°C° 0 mm 1 mps 750 mmHg 91%

Day after tomorrow, 15 August, Saturday

Time Temperature Precipitation Wind Pressure Humidity
00:00 +19°C° 0 mm 1 mps 750 mmHg 92%
01:00 +17°C° 0 mm 0 mps 750 mmHg 92%
02:00 +19°C° 0 mm 1 mps 749 mmHg 93%
03:00 +19°C° 0 mm 1 mps 749 mmHg 93%
04:00 +18°C° 0 mm 1 mps 749 mmHg 94%
05:00 +18°C° 0 mm 1 mps 749 mmHg 94%
06:00 +18°C° 0 mm 1 mps 749 mmHg 94%
07:00 +17°C° 0 mm 2 mps 750 mmHg 94%
08:00 +21°C° 0 mm 1 mps 750 mmHg 82%
09:00 +24°C° 0 mm 1 mps 750 mmHg 70%
10:00 +25°C° 0 mm 0 mps 750 mmHg 57%
11:00 +28°C° 0 mm 1 mps 749 mmHg 55%
12:00 +28°C° 0 mm 2 mps 748 mmHg 54%
13:00 +29°C° 0 mm 2 mps 748 mmHg 52%
14:00 +28°C° 0 mm 2 mps 747 mmHg 56%
15:00 +27°C° 0 mm 3 mps 747 mmHg 61%
16:00 +26°C° 0 mm 3 mps 747 mmHg 65%
17:00 +24°C° 0 mm 2 mps 747 mmHg 73%
18:00 +23°C° 0 mm 2 mps 748 mmHg 81%
19:00 +21°C° 0 mm 1 mps 748 mmHg 89%
20:00 +21°C° 0 mm 1 mps 749 mmHg 91%
21:00 +20°C° 0 mm 1 mps 749 mmHg 92%
22:00 +20°C° 0 mm 1 mps 750 mmHg 93%
23:00 +20°C° 0 mm 1 mps 750 mmHg 94%

16 August, Sunday

Time Temperature Precipitation Wind Pressure Humidity
00:00 +19°C° 0 mm 1 mps 750 mmHg 94%
01:00 +19°C° 0 mm 1 mps 750 mmHg 94%
02:00 +19°C° 0 mm 1 mps 749 mmHg 93%
03:00 +19°C° 0 mm 1 mps 749 mmHg 92%
04:00 +19°C° 0 mm 1 mps 749 mmHg 90%
05:00 +18°C° 0 mm 2 mps 750 mmHg 83%
06:00 +17°C° 0 mm 2 mps 750 mmHg 76%
07:00 +17°C° 0 mm 2 mps 751 mmHg 69%
08:00 +20°C° 0 mm 2 mps 751 mmHg 57%
09:00 +24°C° 0 mm 2 mps 751 mmHg 45%
10:00 +27°C° 0 mm 2 mps 751 mmHg 32%
11:00 +27°C° 0 mm 3 mps 750 mmHg 31%
12:00 +28°C° 0 mm 3 mps 750 mmHg 30%
13:00 +29°C° 0 mm 4 mps 749 mmHg 28%
14:00 +28°C° 0 mm 4 mps 748 mmHg 31%
15:00 +28°C° 0 mm 3 mps 748 mmHg 33%
16:00 +27°C° 0 mm 3 mps 747 mmHg 35%
17:00 +24°C° 0 mm 3 mps 748 mmHg 43%
18:00 +21°C° 0 mm 2 mps 748 mmHg 52%
19:00 +19°C° 0 mm 1 mps 748 mmHg 60%
20:00 +19°C° 0 mm 1 mps 749 mmHg 60%
21:00 +19°C° 0 mm 1 mps 749 mmHg 59%
22:00 +18°C° 0 mm 1 mps 749 mmHg 59%
23:00 +18°C° 0 mm 1 mps 749 mmHg 59%

17 August, Monday

Time Temperature Precipitation Wind Pressure Humidity
00:00 +18°C° 0 mm 1 mps 749 mmHg 59%
01:00 +16°C° 0 mm 1 mps 749 mmHg 60%
02:00 +16°C° 0 mm 1 mps 749 mmHg 60%
03:00 +16°C° 0 mm 2 mps 749 mmHg 60%
04:00 +15°C° 0 mm 2 mps 749 mmHg 60%
05:00 +15°C° 0 mm 2 mps 750 mmHg 60%
06:00 +15°C° 0 mm 2 mps 750 mmHg 60%
07:00 +15°C° 0 mm 2 mps 751 mmHg 60%
08:00 +18°C° 0 mm 2 mps 751 mmHg 55%
09:00 +22°C° 0 mm 1 mps 751 mmHg 49%
10:00 +25°C° 0 mm 1 mps 751 mmHg 44%
11:00 +26°C° 0 mm 1 mps 751 mmHg 43%
12:00 +26°C° 0 mm 2 mps 750 mmHg 42%
13:00 +27°C° 0 mm 3 mps 749 mmHg 41%
14:00 +26°C° 0 mm 3 mps 748 mmHg 44%
15:00 +25°C° 0 mm 3 mps 748 mmHg 47%
16:00 +25°C° 0 mm 3 mps 747 mmHg 50%
17:00 +23°C° 0 mm 2 mps 748 mmHg 58%
18:00 +21°C° 0 mm 1 mps 748 mmHg 66%
19:00 +19°C° 0 mm 1 mps 748 mmHg 74%
20:00 +18°C° 0 mm 1 mps 749 mmHg 76%
21:00 +18°C° 0 mm 1 mps 749 mmHg 78%
22:00 +16°C° 0 mm 1 mps 750 mmHg 80%
23:00 +16°C° 0 mm 1 mps 750 mmHg 81%

18 August, Tuesday

Time Temperature Precipitation Wind Pressure Humidity
00:00 +16°C° 0 mm 1 mps 749 mmHg 82%
01:00 +15°C° 0 mm 1 mps 749 mmHg 83%
02:00 +15°C° 0 mm 1 mps 749 mmHg 83%
03:00 +15°C° 0 mm 1 mps 749 mmHg 83%
04:00 +15°C° 0 mm 1 mps 749 mmHg 84%
05:00 +15°C° 0 mm 1 mps 749 mmHg 83%
06:00 +15°C° 0 mm 1 mps 749 mmHg 82%
07:00 +15°C° 0 mm 1 mps 750 mmHg 81%
08:00 +19°C° 0 mm 1 mps 750 mmHg 70%
09:00 +22°C° 0 mm 1 mps 750 mmHg 58%
10:00 +25°C° 0 mm 1 mps 750 mmHg 47%
11:00 +26°C° 0 mm 1 mps 750 mmHg 45%
12:00 +26°C° 0 mm 1 mps 749 mmHg 44%
13:00 +27°C° 0 mm 2 mps 749 mmHg 42%
14:00 +26°C° 0 mm 2 mps 748 mmHg 45%
15:00 +26°C° 0 mm 2 mps 748 mmHg 48%
16:00 +25°C° 0 mm 2 mps 747 mmHg 51%
17:00 +23°C° 0 mm 2 mps 748 mmHg 59%
18:00 +20°C° 0 mm 2 mps 748 mmHg 68%
19:00 +19°C° 0 mm 1 mps 749 mmHg 76%
20:00 +19°C° 0 mm 1 mps 749 mmHg 78%
21:00 +18°C° 0 mm 1 mps 750 mmHg 80%
22:00 +18°C° 0 mm 1 mps 750 mmHg 82%
23:00 +16°C° 0 mm 1 mps 750 mmHg 83%
Show more